Карточка аэропорта UNWW

Внимание!
Информация на этой странице в стадии наполнения.
Если вы не увидели какой-то информации, или заметили неточность - пожалуйста сообщите нам!
Спасибо!
Команда RU-STAFF
Название аэропортаСпиченково
Название аэропорта (англ.)Spichenkovo
Превышение1023 ft. (311.8 m.)
Координаты53°48.714', 86°52.704'
Высота перехода800m
Эшелон переходаFL050
Коды ответчика5270-5277
Зона ОрВДНовосибирск РПИ (UNNT)
Данные METARUNWW 211930Z 17001MPS 9999 BKN040CB 17/16 Q1005 R19/09//55 NOSIG RMK QFE726
Проноз погоды (TAF)UNWW 211700Z 2118/2218 21003G08MPS 8000 BKN040CB TX25/2207Z TN16/2122Z TEMPO 2118/2202 0300 -TSRA FG BKN002 BKN011CB TEMPO 2202/2218 25008G15MPS -TSRA
NOTAMshow/hide NOTAM
AWOS   TABLE

Информация о ВПП

ВПП Длина ВПП (м.) Покрытие Курс ВПП Частота ILS
012679Цементобетон14 
192679Цементобетон194111.1

Диспетчерские позиции

Позывной Наименование органа УВД Частота
UNWW_APPНовокузнецк-Подход118.6
UNWW_TWRНовокузнецк-Старт121.2



Спутниковое изображение